QPF
0.00 0.00 0.00 0.00 0.01 0.01 0.01 0.01 0.01 0.01 0.00 0.00 0.00 0.00 0.00 0.00 0.00 0.00 0.01 0.01 0.02 0.02 0.02 0.02 0.02 0.02 0.03 0.03 0.03 0.04 0.02 0.01 0.00 0.00 0.00 0.00 0.00 0.00 0.00 0.00 0.00 0.00 0.00 0.00
0.00 0.00 0.00 0.00 0.00 0.01 0.01 0.01 0.01 0.01 0.01 0.01 0.00 0.00 0.00 0.00 0.00 0.00 0.01 0.01 0.03 0.02 0.02 0.02 0.02 0.02 0.03 0.04 0.04 0.05 0.04 0.01 0.00 0.00 0.00 0.00 0.00 0.00 0.00 0.00 0.00 0.00 0.00 0.00
0.00 0.00 0.00 0.00 0.00 0.01 0.01 0.01 0.01 0.01 0.01 0.01 0.01 0.00 0.00 0.00 0.00 0.00 0.00 0.01 0.02 0.02 0.02 0.02 0.01 0.02 0.03 0.04 0.04 0.04 0.04 0.02 0.01 0.01 0.00 0.00 0.00 0.00 0.00 0.00 0.00 0.00 0.00 0.00
0.00 0.00 0.00 0.01 0.01 0.01 0.01 0.01 0.01 0.01 0.02 0.02 0.02 0.01 0.00 0.00 0.00 0.00 0.00 0.00 0.01 0.01 0.01 0.00 0.01 0.01 0.01 0.03 0.03 0.03 0.04 0.03 0.02 0.01 0.00 0.00 0.00 0.00 0.00 0.00 0.00 0.00 0.00 0.00
0.00 0.00 0.00 0.01 0.00 0.01 0.01 0.00 0.01 0.01 0.01 0.01 0.02 0.01 0.01 0.00 0.00 0.00 0.00 0.00 0.00 0.00 0.00 0.00 0.00 0.01 0.01 0.02 0.03 0.03 0.03 0.03 0.02 0.01 0.01 0.00 0.01 0.01 0.01 0.01 0.00 0.00 0.00 0.00
0.01 0.00 0.01 0.00 0.00 0.00 0.01 0.00 0.01 0.01 0.01 0.01 0.01 0.01 0.01 0.00 0.00 0.00 0.00 0.00 0.00 0.00 0.00 0.00 0.01 0.01 0.00 0.01 0.02 0.04 0.03 0.03 0.03 0.02 0.02 0.01 0.01 0.01 0.01 0.01 0.01 0.01 0.00 0.00
0.01 0.00 0.00 0.00 0.00 0.00 0.00 0.01 0.01 0.01 0.00 0.01 0.00 0.00 0.00 0.00 0.00 0.00 0.00 0.00 0.00 0.00 0.00 0.01 0.01 0.00 0.00 0.00 0.01 0.04 0.04 0.03 0.03 0.04 0.03 0.03 0.02 0.02 0.02 0.02 0.01 0.01 0.00 0.00
0.01 0.00 0.00 0.00 0.00 0.00 0.00 0.00 0.01 0.00 0.00 0.00 0.00 0.00 0.00 0.00 0.00 0.00 0.00 0.00 0.00 0.00 0.00 0.00 0.00 0.01 0.01 0.01 0.01 0.02 0.04 0.05 0.04 0.04 0.04 0.04 0.03 0.03 0.03 0.02 0.01 0.00 0.00 0.00
0.00 0.00 0.00 0.00 0.00 0.00 0.00 0.00 0.00 0.01 0.00 0.00 0.00 0.00 0.00 0.00 0.00 0.00 0.00 0.00 0.00 0.00 0.00 0.00 0.01 0.01 0.01 0.01 0.01 0.01 0.04 0.06 0.07 0.06 0.05 0.07 0.06 0.05 0.04 0.03 0.02 0.01 0.00 0.00
0.00 0.00 0.00 0.00 0.00 0.01 0.01 0.01 0.01 0.02 0.01 0.01 0.00 0.00 0.00 0.00 0.00 0.00 0.00 0.00 0.00 0.00 0.00 0.00 0.01 0.01 0.01 0.01 0.01 0.01 0.02 0.03 0.05 0.07 0.08 0.10 0.10 0.08 0.07 0.05 0.03 0.02 0.01 0.00
0.00 0.00 0.00 0.00 0.01 0.01 0.01 0.01 0.01 0.02 0.02 0.01 0.00 0.00 0.00 0.00 0.00 0.00 0.00 0.00 0.00 0.00 0.00 0.00 0.00 0.01 0.01 0.01 0.01 0.02 0.02 0.02 0.03 0.05 0.07 0.10 0.10 0.09 0.08 0.08 0.06 0.04 0.02 0.01
0.00 0.00 0.00 0.00 0.00 0.01 0.02 0.01 0.01 0.01 0.01 0.02 0.01 0.00 0.00 0.00 0.00 0.00 0.00 0.00 0.00 0.00 0.00 0.01 0.01 0.01 0.01 0.01 0.01 0.01 0.01 0.02 0.02 0.03 0.05 0.06 0.07 0.10 0.08 0.07 0.06 0.05 0.03 0.02
0.00 0.00 0.00 0.00 0.00 0.00 0.01 0.01 0.01 0.01 0.01 0.01 0.01 0.00 0.00 0.00 0.00 0.00 0.00 0.00 0.00 0.00 0.01 0.01 0.01 0.01 0.01 0.01 0.01 0.01 0.01 0.01 0.01 0.02 0.04 0.06 0.06 0.06 0.07 0.06 0.05 0.04 0.03 0.02
0.00 0.00 0.00 0.00 0.00 0.00 0.00 0.00 0.01 0.02 0.01 0.00 0.00 0.00 0.00 0.00 0.00 0.00 0.00 0.00 0.00 0.01 0.02 0.01 0.01 0.01 0.00 0.01 0.02 0.02 0.01 0.02 0.03 0.02 0.03 0.05 0.06 0.05 0.05 0.04 0.04 0.04 0.03 0.03
0.00 0.00 0.00 0.00 0.00 0.00 0.00 0.00 0.01 0.01 0.01 0.01 0.00 0.00 0.00 0.00 0.00 0.00 0.00 0.00 0.01 0.02 0.01 0.01 0.01 0.01 0.01 0.01 0.02 0.02 0.03 0.02 0.02 0.02 0.02 0.03 0.04 0.05 0.04 0.04 0.04 0.04 0.04 0.03
0.01 0.01 0.01 0.01 0.01 0.01 0.00 0.00 0.00 0.00 0.00 0.01 0.01 0.01 0.00 0.00 0.00 0.00 0.00 0.01 0.01 0.01 0.01 0.01 0.01 0.01 0.01 0.01 0.02 0.03 0.03 0.02 0.03 0.03 0.03 0.04 0.05 0.05 0.05 0.04 0.04 0.05 0.05 0.05
0.00 0.01 0.01 0.01 0.01 0.01 0.01 0.01 0.01 0.00 0.00 0.01 0.01 0.01 0.00 0.00 0.00 0.00 0.00 0.00 0.01 0.01 0.02 0.02 0.02 0.02 0.02 0.02 0.01 0.01 0.01 0.02 0.02 0.02 0.03 0.04 0.06 0.05 0.05 0.05 0.05 0.05 0.05 0.05
0.00 0.01 0.01 0.01 0.01 0.02 0.01 0.00 0.00 0.00 0.00 0.01 0.01 0.02 0.01 0.00 0.00 0.00 0.01 0.01 0.01 0.02 0.02 0.02 0.02 0.02 0.01 0.01 0.00 0.00 0.01 0.02 0.02 0.02 0.01 0.01 0.03 0.04 0.03 0.03 0.02 0.03 0.04 0.04
0.00 0.01 0.01 0.02 0.01 0.01 0.00 0.00 0.00 0.00 0.00 0.00 0.01 0.02 0.01 0.01 0.00 0.00 0.01 0.01 0.01 0.01 0.02 0.02 0.01 0.01 0.00 0.00 0.00 0.01 0.01 0.01 0.03 0.04 0.03 0.02 0.02 0.03 0.04 0.03 0.03 0.03 0.04 0.04
0.00 0.01 0.02 0.02 0.02 0.02 0.01 0.00 0.00 0.01 0.01 0.00 0.01 0.02 0.02 0.01 0.01 0.00 0.00 0.00 0.00 0.01 0.01 0.02 0.01 0.01 0.00 0.00 0.00 0.01 0.02 0.01 0.01 0.03 0.04 0.04 0.04 0.03 0.04 0.04 0.03 0.04 0.04 0.04
0.01 0.01 0.02 0.02 0.02 0.01 0.00 0.00 0.00 0.01 0.01 0.00 0.00 0.01 0.02 0.01 0.01 0.00 0.00 0.00 0.00 0.00 0.01 0.02 0.01 0.01 0.00 0.00 0.00 0.02 0.03 0.02 0.01 0.01 0.03 0.04 0.03 0.04 0.04 0.04 0.04 0.04 0.05 0.05
0.01 0.01 0.01 0.02 0.02 0.02 0.00 0.00 0.01 0.01 0.00 0.00 0.00 0.01 0.01 0.01 0.01 0.00 0.00 0.00 0.00 0.00 0.01 0.02 0.02 0.01 0.01 0.00 0.00 0.02 0.04 0.02 0.01 0.01 0.01 0.02 0.03 0.03 0.04 0.04 0.04 0.04 0.04 0.04
0.01 0.01 0.01 0.01 0.01 0.00 0.00 0.00 0.00 0.00 0.01 0.00 0.00 0.00 0.00 0.01 0.01 0.00 0.00 0.00 0.00 0.00 0.00 0.01 0.01 0.01 0.01 0.01 0.01 0.02 0.05 0.03 0.02 0.01 0.01 0.01 0.02 0.03 0.03 0.04 0.05 0.04 0.04 0.04
0.00 0.00 0.01 0.01 0.01 0.00 0.00 0.00 0.00 0.00 0.00 0.00 0.00 0.00 0.00 0.00 0.01 0.01 0.00 0.00 0.00 0.00 0.00 0.01 0.01 0.01 0.01 0.01 0.01 0.02 0.05 0.04 0.02 0.01 0.01 0.01 0.02 0.02 0.03 0.04 0.06 0.05 0.05 0.05
0.01 0.01 0.01 0.00 0.00 0.00 0.00 0.00 0.00 0.00 0.00 0.00 0.00 0.00 0.00 0.00 0.00 0.00 0.00 0.00 0.00 0.00 0.01 0.01 0.01 0.01 0.01 0.01 0.01 0.03 0.05 0.04 0.02 0.01 0.01 0.02 0.02 0.02 0.02 0.03 0.04 0.05 0.05 0.06
0.02 0.02 0.02 0.01 0.01 0.00 0.00 0.00 0.00 0.00 0.00 0.00 0.00 0.00 0.00 0.00 0.00 0.00 0.00 0.00 0.00 0.01 0.01 0.01 0.01 0.01 0.01 0.01 0.02 0.03 0.04 0.03 0.01 0.01 0.01 0.01 0.01 0.01 0.01 0.02 0.03 0.03 0.03 0.04
MSLP
1012.66 1013.62 1014.39 1014.94 1015.27 1015.42 1015.43 1015.36 1015.25 1015.09 1014.92 1014.70 1014.43 1014.11 1013.74 1013.34 1012.96 1012.62 1012.35 1012.19 1012.12 1012.15 1012.25 1012.38 1012.54 1012.69 1012.83 1012.97 1013.12 1013.30 1013.51 1013.76 1014.05 1014.35 1014.63 1014.88 1015.07 1015.19 1015.25 1015.27 1015.26 1015.27 1015.31 1015.40
1013.37 1014.18 1014.80 1015.20 1015.44 1015.54 1015.57 1015.57 1015.55 1015.50 1015.41 1015.22 1014.93 1014.51 1014.00 1013.41 1012.83 1012.30 1011.88 1011.61 1011.49 1011.51 1011.64 1011.84 1012.05 1012.25 1012.44 1012.61 1012.78 1012.99 1013.24 1013.55 1013.91 1014.29 1014.66 1014.99 1015.25 1015.41 1015.49 1015.50 1015.47 1015.44 1015.45 1015.52
1013.80 1014.43 1014.87 1015.14 1015.30 1015.41 1015.51 1015.64 1015.78 1015.89 1015.92 1015.81 1015.50 1015.00 1014.32 1013.52 1012.70 1011.93 1011.31 1010.89 1010.68 1010.66 1010.80 1011.03 1011.30 1011.57 1011.82 1012.05 1012.29 1012.55 1012.87 1013.26 1013.69 1014.16 1014.61 1015.01 1015.33 1015.53 1015.63 1015.64 1015.60 1015.56 1015.56 1015.62
1013.94 1014.37 1014.64 1014.80 1014.92 1015.07 1015.29 1015.60 1015.96 1016.28 1016.47 1016.45 1016.15 1015.57 1014.72 1013.70 1012.61 1011.59 1010.73 1010.11 1009.76 1009.66 1009.78 1010.03 1010.36 1010.70 1011.03 1011.35 1011.66 1012.01 1012.41 1012.87 1013.38 1013.93 1014.45 1014.91 1015.27 1015.51 1015.63 1015.65 1015.63 1015.59 1015.59 1015.66
1013.86 1014.08 1014.19 1014.25 1014.37 1014.60 1014.99 1015.51 1016.11 1016.65 1017.03 1017.11 1016.84 1016.18 1015.18 1013.94 1012.60 1011.31 1010.20 1009.36 1008.85 1008.65 1008.71 1008.96 1009.32 1009.73 1010.14 1010.54 1010.95 1011.38 1011.86 1012.40 1012.98 1013.58 1014.16 1014.67 1015.07 1015.34 1015.49 1015.54 1015.53 1015.52 1015.54 1015.64
1013.63 1013.67 1013.64 1013.64 1013.77 1014.10 1014.65 1015.39 1016.21 1016.97 1017.52 1017.71 1017.46 1016.75 1015.62 1014.19 1012.63 1011.10 1009.76 1008.72 1008.03 1007.71 1007.70 1007.93 1008.30 1008.75 1009.23 1009.70 1010.19 1010.69 1011.25 1011.85 1012.49 1013.14 1013.76 1014.30 1014.73 1015.03 1015.21 1015.29 1015.32 1015.35 1015.41 1015.55
1013.39 1013.26 1013.12 1013.07 1013.22 1013.64 1014.33 1015.24 1016.25 1017.17 1017.85 1018.12 1017.90 1017.15 1015.94 1014.38 1012.65 1010.94 1009.42 1008.21 1007.38 1006.95 1006.86 1007.04 1007.41 1007.87 1008.37 1008.89 1009.43 1009.99 1010.59 1011.24 1011.92 1012.60 1013.25 1013.82 1014.28 1014.61 1014.83 1014.95 1015.03 1015.11 1015.22 1015.41
1013.24 1012.98 1012.75 1012.66 1012.82 1013.29 1014.06 1015.07 1016.17 1017.19 1017.93 1018.25 1018.04 1017.28 1016.03 1014.40 1012.59 1010.79 1009.17 1007.87 1006.95 1006.42 1006.26 1006.39 1006.70 1007.14 1007.64 1008.16 1008.71 1009.29 1009.91 1010.58 1011.28 1011.98 1012.65 1013.25 1013.74 1014.11 1014.37 1014.55 1014.68 1014.81 1014.98 1015.21
1013.26 1012.92 1012.62 1012.49 1012.62 1013.08 1013.86 1014.87 1015.97 1016.97 1017.71 1018.02 1017.81 1017.06 1015.82 1014.22 1012.43 1010.64 1009.03 1007.70 1006.75 1006.17 1005.95 1006.00 1006.25 1006.62 1007.06 1007.54 1008.05 1008.61 1009.22 1009.88 1010.58 1011.29 1011.98 1012.60 1013.13 1013.55 1013.86 1014.10 1014.29 1014.48 1014.70 1014.97
1013.49 1013.09 1012.74 1012.57 1012.65 1013.04 1013.73 1014.65 1015.64 1016.55 1017.20 1017.46 1017.23 1016.51 1015.34 1013.84 1012.17 1010.50 1008.98 1007.72 1006.80 1006.21 1005.94 1005.91 1006.06 1006.33 1006.66 1007.04 1007.48 1007.97 1008.53 1009.16 1009.84 1010.55 1011.25 1011.90 1012.47 1012.94 1013.31 1013.61 1013.86 1014.11 1014.37 1014.68
1013.89 1013.48 1013.10 1012.88 1012.89 1013.16 1013.70 1014.44 1015.24 1015.97 1016.48 1016.65 1016.40 1015.73 1014.68 1013.35 1011.88 1010.41 1009.07 1007.96 1007.11 1006.55 1006.24 1006.12 1006.15 1006.27 1006.46 1006.70 1007.01 1007.39 1007.86 1008.43 1009.08 1009.77 1010.47 1011.15 1011.75 1012.27 1012.70 1013.06 1013.37 1013.66 1013.96 1014.29
1014.41 1014.01 1013.63 1013.37 1013.29 1013.43 1013.78 1014.29 1014.86 1015.37 1015.70 1015.76 1015.49 1014.89 1014.00 1012.88 1011.66 1010.45 1009.35 1008.42 1007.69 1007.17 1006.82 1006.61 1006.49 1006.44 1006.45 1006.51 1006.65 1006.89 1007.25 1007.73 1008.32 1008.97 1009.66 1010.34 1010.98 1011.54 1012.02 1012.43 1012.79 1013.12 1013.45 1013.79
1014.95 1014.59 1014.24 1013.95 1013.80 1013.80 1013.97 1014.25 1014.58 1014.87 1015.03 1014.99 1014.71 1014.19 1013.46 1012.59 1011.64 1010.71 1009.85 1009.11 1008.50 1008.02 1007.63 1007.32 1007.05 1006.81 1006.62 1006.49 1006.44 1006.51 1006.73 1007.09 1007.59 1008.18 1008.84 1009.51 1010.15 1010.73 1011.25 1011.70 1012.10 1012.46 1012.82 1013.17
1015.45 1015.15 1014.84 1014.56 1014.36 1014.26 1014.27 1014.36 1014.48 1014.58 1014.59 1014.47 1014.20 1013.77 1013.22 1012.57 1011.88 1011.21 1010.57 1010.01 1009.50 1009.04 1008.61 1008.19 1007.76 1007.34 1006.94 1006.61 1006.37 1006.27 1006.33 1006.56 1006.94 1007.44 1008.03 1008.65 1009.27 1009.86 1010.39 1010.86 1011.29 1011.69 1012.06 1012.43
1015.86 1015.64 1015.38 1015.13 1014.92 1014.77 1014.67 1014.62 1014.60 1014.56 1014.47 1014.30 1014.05 1013.71 1013.31 1012.85 1012.38 1011.91 1011.46 1011.01 1010.57 1010.12 1009.63 1009.10 1008.53 1007.94 1007.37 1006.85 1006.44 1006.17 1006.07 1006.15 1006.39 1006.78 1007.27 1007.81 1008.38 1008.93 1009.46 1009.94 1010.38 1010.80 1011.19 1011.58
1016.19 1016.03 1015.84 1015.64 1015.44 1015.27 1015.13 1015.01 1014.90 1014.78 1014.64 1014.47 1014.25 1013.99 1013.70 1013.39 1013.07 1012.73 1012.38 1012.01 1011.59 1011.11 1010.56 1009.93 1009.25 1008.53 1007.82 1007.17 1006.61 1006.19 1005.94 1005.88 1005.98 1006.22 1006.58 1007.02 1007.51 1008.00 1008.49 1008.96 1009.41 1009.84 1010.26 1010.67
1016.48 1016.36 1016.22 1016.07 1015.91 1015.75 1015.60 1015.46 1015.33 1015.19 1015.04 1014.88 1014.69 1014.49 1014.27 1014.04 1013.79 1013.52 1013.20 1012.84 1012.40 1011.88 1011.27 1010.57 1009.81 1009.01 1008.22 1007.48 1006.83 1006.30 1005.94 1005.74 1005.69 1005.79 1006.01 1006.32 1006.69 1007.10 1007.53 1007.97 1008.41 1008.85 1009.29 1009.72
1016.80 1016.70 1016.57 1016.44 1016.31 1016.17 1016.04 1015.92 1015.79 1015.66 1015.53 1015.39 1015.23 1015.05 1014.86 1014.64 1014.40 1014.11 1013.77 1013.36 1012.87 1012.30 1011.64 1010.91 1010.12 1009.31 1008.50 1007.73 1007.05 1006.47 1006.02 1005.71 1005.54 1005.49 1005.56 1005.72 1005.96 1006.27 1006.62 1007.02 1007.44 1007.87 1008.32 1008.77
1017.23 1017.09 1016.95 1016.80 1016.66 1016.53 1016.41 1016.30 1016.20 1016.09 1015.98 1015.85 1015.70 1015.52 1015.31 1015.05 1014.75 1014.39 1013.98 1013.50 1012.95 1012.33 1011.65 1010.92 1010.15 1009.38 1008.61 1007.89 1007.22 1006.64 1006.15 1005.76 1005.48 1005.30 1005.22 1005.24 1005.34 1005.53 1005.79 1006.12 1006.51 1006.93 1007.37 1007.83
1017.81 1017.59 1017.38 1017.17 1016.99 1016.83 1016.70 1016.59 1016.49 1016.39 1016.29 1016.16 1015.99 1015.78 1015.51 1015.19 1014.80 1014.34 1013.83 1013.27 1012.66 1012.01 1011.33 1010.64 1009.94 1009.25 1008.57 1007.93 1007.33 1006.78 1006.28 1005.84 1005.47 1005.18 1004.97 1004.84 1004.81 1004.88 1005.05 1005.30 1005.63 1006.01 1006.44 1006.88
1018.53 1018.20 1017.88 1017.58 1017.31 1017.09 1016.90 1016.76 1016.64 1016.53 1016.41 1016.27 1016.07 1015.81 1015.47 1015.06 1014.57 1014.02 1013.41 1012.77 1012.11 1011.45 1010.80 1010.16 1009.55 1008.97 1008.42 1007.89 1007.37 1006.87 1006.39 1005.92 1005.49 1005.10 1004.77 1004.51 1004.35 1004.30 1004.36 1004.52 1004.78 1005.11 1005.50 1005.92
1019.35 1018.90 1018.45 1018.02 1017.63 1017.31 1017.05 1016.84 1016.68 1016.53 1016.38 1016.20 1015.96 1015.64 1015.23 1014.74 1014.16 1013.53 1012.85 1012.15 1011.46 1010.81 1010.19 1009.63 1009.12 1008.65 1008.21 1007.78 1007.35 1006.90 1006.44 1005.96 1005.47 1005.00 1004.57 1004.20 1003.92 1003.75 1003.70 1003.77 1003.94 1004.20 1004.53 1004.91
1020.18 1019.60 1019.02 1018.46 1017.95 1017.51 1017.16 1016.87 1016.64 1016.45 1016.25 1016.02 1015.73 1015.37 1014.90 1014.35 1013.71 1013.02 1012.29 1011.57 1010.87 1010.23 1009.66 1009.16 1008.73 1008.35 1007.99 1007.64 1007.27 1006.86 1006.41 1005.90 1005.37 1004.83 1004.31 1003.85 1003.47 1003.19 1003.04 1003.01 1003.09 1003.27 1003.53 1003.85
1020.91 1020.24 1019.54 1018.87 1018.25 1017.71 1017.26 1016.89 1016.60 1016.34 1016.09 1015.82 1015.49 1015.09 1014.59 1014.00 1013.33 1012.61 1011.87 1011.14 1010.45 1009.83 1009.29 1008.84 1008.45 1008.11 1007.80 1007.48 1007.13 1006.72 1006.25 1005.72 1005.14 1004.54 1003.96 1003.42 1002.95 1002.59 1002.35 1002.23 1002.22 1002.33 1002.51 1002.76
1021.45 1020.71 1019.95 1019.20 1018.50 1017.89 1017.37 1016.93 1016.58 1016.27 1015.98 1015.67 1015.31 1014.88 1014.36 1013.77 1013.09 1012.38 1011.65 1010.93 1010.25 1009.64 1009.11 1008.66 1008.27 1007.93 1007.60 1007.25 1006.87 1006.43 1005.92 1005.35 1004.73 1004.09 1003.46 1002.87 1002.35 1001.93 1001.62 1001.43 1001.36 1001.39 1001.50 1001.69
1021.72 1020.97 1020.19 1019.42 1018.70 1018.05 1017.49 1017.01 1016.61 1016.26 1015.93 1015.59 1015.21 1014.77 1014.25 1013.66 1013.01 1012.31 1011.60 1010.90 1010.23 1009.62 1009.07 1008.58 1008.14 1007.74 1007.33 1006.92 1006.46 1005.95 1005.37 1004.75 1004.10 1003.43 1002.78 1002.18 1001.65 1001.21 1000.87 1000.65 1000.53 1000.50 1000.57 1000.71
Thickness
5728 5714 5704 5708 5711 5711 5707 5702 5699 5704 5716 5710 5705 5705 5712 5716 5716 5714 5714 5715 5716 5720 5725 5726 5726 5727 5726 5725 5724 5723 5721 5720 5718 5716 5713 5711 5709 5709 5708 5708 5708 5707 5706 5705
5710 5704 5714 5718 5715 5711 5705 5698 5697 5703 5713 5707 5700 5701 5710 5713 5714 5715 5715 5715 5717 5719 5720 5722 5723 5723 5723 5722 5722 5721 5719 5718 5717 5716 5713 5711 5708 5706 5705 5704 5704 5703 5702 5701
5702 5709 5719 5714 5708 5703 5700 5696 5697 5697 5702 5703 5698 5695 5703 5710 5713 5715 5717 5717 5718 5719 5719 5719 5719 5720 5720 5719 5719 5720 5717 5716 5715 5714 5711 5708 5705 5703 5701 5700 5699 5699 5698 5697
5704 5712 5712 5707 5702 5701 5692 5705 5702 5697 5687 5680 5689 5673 5693 5701 5705 5710 5713 5713 5715 5718 5720 5719 5719 5718 5718 5718 5718 5717 5715 5714 5712 5711 5709 5706 5702 5698 5698 5697 5696 5695 5694 5693
5699 5707 5705 5700 5703 5703 5699 5705 5699 5693 5683 5675 5678 5670 5681 5694 5697 5705 5710 5712 5715 5717 5718 5719 5719 5719 5718 5717 5716 5714 5713 5711 5710 5708 5706 5703 5700 5698 5696 5694 5693 5692 5691 5690
5700 5709 5708 5705 5709 5707 5703 5694 5685 5676 5670 5661 5673 5666 5672 5686 5696 5703 5709 5711 5713 5715 5716 5717 5717 5716 5715 5714 5713 5711 5709 5707 5706 5705 5703 5701 5698 5695 5693 5691 5689 5687 5686 5685
5688 5697 5705 5707 5698 5698 5692 5674 5656 5654 5647 5652 5670 5666 5673 5695 5702 5705 5707 5709 5712 5712 5712 5712 5712 5711 5711 5710 5709 5708 5706 5704 5703 5702 5700 5698 5696 5694 5691 5689 5686 5684 5682 5681
5670 5673 5693 5699 5693 5685 5681 5673 5652 5643 5641 5648 5662 5660 5679 5699 5704 5706 5708 5708 5709 5708 5708 5709 5709 5708 5707 5707 5706 5705 5703 5701 5700 5698 5697 5695 5694 5691 5689 5687 5685 5682 5681 5680
5665 5669 5691 5696 5696 5688 5674 5666 5669 5651 5647 5644 5651 5663 5681 5697 5698 5700 5701 5702 5703 5704 5704 5705 5705 5704 5704 5703 5702 5701 5700 5698 5697 5695 5694 5692 5690 5688 5686 5684 5682 5680 5678 5677
5672 5665 5679 5687 5689 5683 5678 5667 5652 5646 5636 5634 5646 5655 5665 5683 5688 5692 5692 5694 5696 5698 5699 5700 5700 5700 5700 5700 5699 5698 5696 5694 5693 5692 5689 5688 5686 5685 5683 5681 5678 5676 5675 5674
5670 5659 5664 5672 5670 5667 5665 5660 5651 5642 5641 5632 5633 5650 5678 5680 5685 5685 5687 5690 5691 5693 5694 5695 5695 5696 5695 5694 5694 5692 5691 5689 5688 5687 5685 5684 5682 5681 5679 5677 5675 5673 5671 5670
5661 5650 5645 5659 5672 5675 5669 5661 5650 5641 5637 5633 5632 5648 5682 5682 5683 5683 5683 5686 5688 5689 5689 5690 5689 5689 5688 5688 5687 5686 5686 5685 5684 5682 5681 5679 5677 5676 5674 5673 5671 5670 5668 5666
5656 5643 5634 5642 5650 5659 5660 5658 5653 5644 5634 5624 5627 5648 5676 5676 5678 5679 5679 5680 5682 5683 5684 5683 5683 5682 5681 5681 5681 5681 5680 5680 5679 5677 5675 5673 5672 5670 5668 5667 5666 5664 5663 5661
5656 5639 5634 5632 5638 5646 5648 5651 5648 5641 5630 5627 5633 5649 5664 5667 5668 5671 5673 5675 5676 5677 5677 5677 5676 5676 5676 5675 5675 5674 5674 5674 5673 5671 5670 5668 5667 5666 5664 5662 5660 5659 5657 5656
5645 5634 5636 5640 5645 5646 5646 5646 5644 5642 5640 5635 5642 5646 5658 5662 5664 5666 5667 5669 5670 5671 5671 5670 5670 5670 5670 5669 5669 5668 5668 5667 5667 5665 5664 5663 5662 5661 5659 5657 5655 5653 5652 5651
5633 5629 5630 5632 5638 5638 5638 5643 5642 5642 5642 5640 5643 5646 5657 5659 5659 5659 5661 5663 5664 5665 5666 5666 5666 5665 5664 5664 5664 5663 5662 5661 5660 5659 5658 5658 5655 5654 5652 5651 5649 5647 5645 5644
5621 5621 5618 5617 5626 5628 5624 5637 5639 5640 5641 5640 5637 5645 5651 5652 5653 5655 5657 5658 5659 5660 5661 5661 5661 5661 5660 5660 5659 5658 5657 5656 5654 5653 5652 5651 5650 5648 5646 5645 5642 5640 5638 5636
5615 5612 5606 5607 5612 5609 5629 5642 5642 5639 5637 5637 5639 5642 5643 5645 5648 5650 5651 5651 5652 5655 5656 5656 5656 5655 5656 5655 5654 5653 5651 5649 5647 5646 5645 5644 5642 5641 5639 5637 5635 5633 5631 5629
5613 5608 5598 5594 5599 5608 5624 5633 5633 5630 5628 5633 5632 5635 5636 5639 5641 5642 5646 5646 5647 5649 5650 5651 5651 5650 5649 5649 5648 5646 5643 5641 5640 5638 5637 5637 5635 5633 5631 5629 5628 5626 5625 5623
5603 5602 5594 5589 5595 5597 5615 5628 5632 5628 5618 5626 5625 5626 5627 5629 5624 5630 5638 5639 5640 5642 5643 5643 5644 5643 5642 5641 5640 5637 5634 5633 5632 5632 5631 5630 5629 5627 5625 5624 5621 5619 5618 5616
5590 5587 5584 5584 5587 5596 5611 5618 5622 5607 5610 5619 5620 5620 5619 5618 5620 5625 5629 5631 5632 5633 5634 5635 5635 5634 5634 5634 5632 5629 5627 5626 5627 5626 5624 5622 5621 5620 5619 5617 5614 5612 5610 5607
5581 5578 5577 5576 5579 5589 5606 5608 5604 5604 5610 5612 5613 5613 5612 5613 5616 5618 5619 5621 5622 5623 5624 5625 5625 5625 5625 5625 5624 5623 5621 5622 5620 5618 5616 5614 5613 5612 5611 5608 5605 5603 5601 5598
5570 5573 5574 5576 5582 5589 5594 5597 5600 5601 5602 5604 5605 5606 5606 5607 5607 5609 5610 5611 5613 5614 5615 5615 5615 5615 5615 5615 5616 5615 5615 5614 5611 5609 5607 5606 5605 5604 5602 5599 5597 5594 5592 5590
5563 5565 5565 5567 5574 5579 5583 5588 5591 5593 5594 5596 5598 5599 5599 5598 5599 5599 5600 5601 5602 5604 5605 5606 5606 5605 5605 5606 5606 5606 5606 5605 5604 5602 5599 5598 5596 5594 5593 5591 5589 5587 5584 5583
5554 5555 5555 5557 5565 5569 5576 5578 5581 5584 5586 5588 5589 5590 5590 5590 5590 5591 5591 5592 5593 5595 5595 5596 5596 5597 5597 5597 5597 5597 5597 5596 5595 5593 5592 5590 5588 5586 5584 5582 5581 5580 5579 5578
5546 5548 5549 5553 5559 5557 5563 5569 5572 5573 5575 5578 5579 5580 5581 5581 5581 5582 5582 5583 5584 5585 5586 5586 5587 5587 5587 5588 5588 5589 5588 5587 5586 5584 5582 5581 5579 5577 5575 5573 5572 5572 5571 5571